AAL9920 KPQI-TJSJ

Flight info

Callsign AAL9920
Flight time N/A
Altitude 35000
Route VIGMA/M079F360 DCT MEANO DCT EMAKO/M079F370 L456 HANCY/N0459F370 L456 THANK SAALR2
Aircraft A319/M-SDE3FGHIRWY/LB1

Departure

Time 2026-05-08 00:55
Airport Presque Isle International Airport (KPQI)

Arrival

Time N/A
Airport Luis Munoz Marin International Airport (TJSJ)
Time Latitude Longitude Altitude Speed Heading
2026-05-08 00:28 46.69522 -68.04719 516 ft 0 kts 165°
2026-05-08 00:46 46.69521 -68.04719 516 ft 1 kts 165°
2026-05-08 00:46 46.69501 -68.04727 515 ft 5 kts 210°
2026-05-08 00:46 46.69484 -68.04772 515 ft 5 kts 249°
2026-05-08 00:46 46.69445 -68.04789 514 ft 8 kts 170°
2026-05-08 00:47 46.69379 -68.04764 512 ft 12 kts 166°
2026-05-08 00:47 46.69286 -68.04730 508 ft 16 kts 166°
2026-05-08 00:47 46.69167 -68.04685 503 ft 20 kts 165°
2026-05-08 00:47 46.69022 -68.04631 495 ft 23 kts 166°
2026-05-08 00:48 46.68852 -68.04569 489 ft 27 kts 166°
2026-05-08 00:48 46.68657 -68.04494 478 ft 31 kts 165°
2026-05-08 00:48 46.68443 -68.04415 475 ft 32 kts 166°
2026-05-08 00:48 46.68251 -68.04343 473 ft 25 kts 166°
2026-05-08 00:49 46.68163 -68.04356 468 ft 12 kts 246°
2026-05-08 00:49 46.68152 -68.04434 467 ft 0 kts 257°
2026-05-08 00:53 46.68150 -68.04443 467 ft 5 kts 257°
2026-05-08 00:53 46.68134 -68.04549 466 ft 10 kts 258°
2026-05-08 00:54 46.68171 -68.04579 467 ft 6 kts 348°
2026-05-08 00:54 46.68327 -68.04636 473 ft 57 kts 346°
2026-05-08 00:54 46.68953 -68.04869 485 ft 127 kts 346°
2026-05-08 00:54 46.69975 -68.05236 738 ft 157 kts 344°
2026-05-08 00:55 46.70998 -68.05614 1590 ft 150 kts 341°
2026-05-08 00:55 46.72007 -68.05990 2321 ft 152 kts 339°
2026-05-08 00:55 46.73099 -68.06408 2572 ft 172 kts 339°
2026-05-08 00:55 46.74329 -68.06908 2782 ft 195 kts 339°
2026-05-08 00:56 46.75759 -68.07265 2958 ft 228 kts
2026-05-08 00:56 46.77305 -68.06272 3273 ft 264 kts 40°
2026-05-08 00:56 46.78226 -68.03890 3940 ft 280 kts 78°
2026-05-08 00:56 46.78073 -68.01070 4769 ft 284 kts 114°
2026-05-08 00:57 46.76891 -67.98827 5634 ft 281 kts 149°
2026-05-08 00:57 46.75131 -67.97687 6505 ft 277 kts 168°
2026-05-08 00:57 46.73250 -67.97065 7357 ft 277 kts 172°
2026-05-08 00:57 46.71355 -67.96502 8215 ft 279 kts 172°
2026-05-08 00:58 46.69446 -67.95940 9074 ft 281 kts 172°
2026-05-08 00:58 46.67528 -67.95305 9902 ft 285 kts 167°
2026-05-08 00:58 46.65620 -67.94356 10366 ft 301 kts 162°
2026-05-08 00:58 46.63599 -67.93163 10534 ft 325 kts 160°
2026-05-08 00:59 46.61478 -67.91829 10984 ft 336 kts 160°
2026-05-08 00:59 46.59320 -67.90465 11656 ft 340 kts 160°
2026-05-08 00:59 46.57138 -67.89116 12344 ft 343 kts 161°
2026-05-08 00:59 46.54916 -67.87778 13031 ft 346 kts 162°
2026-05-08 01:00 46.52672 -67.86460 13674 ft 350 kts 162°
2026-05-08 01:00 46.50404 -67.85146 14273 ft 352 kts 163°
2026-05-08 01:00 46.48118 -67.83827 14873 ft 354 kts 164°
2026-05-08 01:00 46.45826 -67.82503 15489 ft 357 kts 164°
2026-05-08 01:01 46.43510 -67.81163 16096 ft 359 kts 165°
2026-05-08 01:01 46.41180 -67.79811 16708 ft 361 kts 165°
2026-05-08 01:01 46.38840 -67.78451 17307 ft 364 kts 166°
2026-05-08 01:01 46.36489 -67.77084 17915 ft 366 kts 166°
2026-05-08 01:02 46.34118 -67.75712 18475 ft 368 kts 167°
2026-05-08 01:02 46.31728 -67.74331 18992 ft 370 kts 167°
2026-05-08 01:02 46.29330 -67.72945 19528 ft 372 kts 168°
2026-05-08 01:02 46.26916 -67.71553 20054 ft 374 kts 168°
2026-05-08 01:03 46.24492 -67.70160 20585 ft 376 kts 168°
2026-05-08 01:03 46.22054 -67.68759 21099 ft 378 kts 169°
2026-05-08 01:03 46.19601 -67.67354 21600 ft 380 kts 169°
2026-05-08 01:03 46.17134 -67.65942 22099 ft 382 kts 169°
2026-05-08 01:04 46.14651 -67.64514 22569 ft 384 kts 170°
2026-05-08 01:04 46.12162 -67.63080 23033 ft 387 kts 170°
2026-05-08 01:04 46.09657 -67.61639 23463 ft 388 kts 170°
2026-05-08 01:04 46.07144 -67.60196 23834 ft 390 kts 170°
2026-05-08 01:05 46.04619 -67.58746 24216 ft 391 kts 171°
2026-05-08 01:05 46.02089 -67.57294 24592 ft 392 kts 171°
2026-05-08 01:05 45.99548 -67.55841 24972 ft 393 kts 171°
2026-05-08 01:05 45.97008 -67.54392 25348 ft 394 kts 171°
2026-05-08 01:06 45.94452 -67.52937 25718 ft 395 kts 171°
2026-05-08 01:06 45.91897 -67.51486 26097 ft 396 kts 171°
2026-05-08 01:06 45.89324 -67.50026 26465 ft 397 kts 171°
2026-05-08 01:06 45.86745 -67.48566 26815 ft 399 kts 171°
2026-05-08 01:07 45.84162 -67.47104 27168 ft 400 kts 171°
2026-05-08 01:07 45.81565 -67.45636 27505 ft 402 kts 170°
2026-05-08 01:07 45.78959 -67.44164 27850 ft 403 kts 170°
2026-05-08 01:07 45.76349 -67.42686 28183 ft 404 kts 170°
2026-05-08 01:08 45.73730 -67.41200 28488 ft 406 kts 170°
2026-05-08 01:08 45.71100 -67.39712 28801 ft 407 kts 170°
2026-05-08 01:08 45.68465 -67.38226 29106 ft 408 kts 170°
2026-05-08 01:08 45.65816 -67.36738 29395 ft 410 kts 170°
2026-05-08 01:09 45.63155 -67.35243 29689 ft 412 kts 169°
2026-05-08 01:09 45.60489 -67.33745 29945 ft 413 kts 169°
2026-05-08 01:09 45.57807 -67.32239 30189 ft 414 kts 169°
2026-05-08 01:09 45.55122 -67.30731 30419 ft 416 kts 169°
2026-05-08 01:10 45.52432 -67.29220 30743 ft 414 kts 169°
2026-05-08 01:10 45.49756 -67.27717 31082 ft 413 kts 169°
2026-05-08 01:10 45.47083 -67.26217 31420 ft 412 kts 170°
2026-05-08 01:10 45.44417 -67.24725 31751 ft 410 kts 170°
2026-05-08 01:11 45.41761 -67.23239 32095 ft 409 kts 170°
2026-05-08 01:11 45.39122 -67.21761 32432 ft 408 kts 170°
2026-05-08 01:11 45.36486 -67.20285 32778 ft 406 kts 170°
2026-05-08 01:11 45.33862 -67.18818 33117 ft 405 kts 171°
2026-05-08 01:12 45.31237 -67.17356 33472 ft 403 kts 171°
2026-05-08 01:12 45.28635 -67.15908 33805 ft 402 kts 171°
2026-05-08 01:12 45.26027 -67.14463 34066 ft 401 kts 171°
2026-05-08 01:12 45.23428 -67.13030 34298 ft 401 kts 171°
2026-05-08 01:13 45.20826 -67.11601 34518 ft 402 kts 171°
2026-05-08 01:13 45.18212 -67.10171 34677 ft 403 kts 171°
2026-05-08 01:13 45.15608 -67.08741 34730 ft 402 kts 171°
2026-05-08 01:14 45.10439 -67.05879 34730 ft 400 kts 171°
2026-05-08 01:14 45.05269 -67.03027 34739 ft 398 kts 171°
2026-05-08 01:15 45.00115 -67.00181 34745 ft 397 kts 171°
2026-05-08 01:15 44.94967 -66.97345 34746 ft 396 kts 172°
2026-05-08 01:16 44.89825 -66.94530 34740 ft 396 kts 172°
2026-05-08 01:16 44.84691 -66.91731 34742 ft 395 kts 172°
2026-05-08 01:17 44.79567 -66.88930 34743 ft 395 kts 172°
2026-05-08 01:17 44.74448 -66.86127 34740 ft 394 kts 172°
2026-05-08 01:18 44.69338 -66.83352 34743 ft 393 kts 172°
2026-05-08 01:18 44.64245 -66.80612 34746 ft 392 kts 172°
2026-05-08 01:19 44.59193 -66.77885 34742 ft 391 kts 172°
2026-05-08 01:19 44.54122 -66.75147 34750 ft 390 kts 172°
2026-05-08 01:20 44.49885 -66.72864 34754 ft 389 kts 172°
2026-05-08 01:20 44.44833 -66.70140 34751 ft 389 kts 172°
2026-05-08 01:21 44.39792 -66.67426 34748 ft 388 kts 172°
2026-05-08 01:21 44.34738 -66.64984 34748 ft 374 kts 180°
2026-05-08 01:21 44.32202 -66.64482 34752 ft 362 kts 188°
2026-05-08 01:22 44.29716 -66.64481 34749 ft 356 kts 191°
2026-05-08 01:22 44.24799 -66.64633 34752 ft 356 kts 191°
2026-05-08 01:23 44.19819 -66.64756 34749 ft 356 kts 191°
2026-05-08 01:23 44.14905 -66.64878 34753 ft 355 kts 191°
2026-05-08 01:24 44.09962 -66.65018 34755 ft 355 kts 191°
2026-05-08 01:24 44.05036 -66.65151 34756 ft 355 kts 191°
2026-05-08 01:25 44.00095 -66.65274 34759 ft 355 kts 191°
2026-05-08 01:25 43.95161 -66.65397 34763 ft 354 kts 191°
2026-05-08 01:26 43.90233 -66.65526 34767 ft 354 kts 191°
2026-05-08 01:26 43.85315 -66.65660 34773 ft 354 kts 191°
2026-05-08 01:27 43.80397 -66.65797 34771 ft 353 kts 191°
2026-05-08 01:27 43.75483 -66.65927 34774 ft 353 kts 191°
2026-05-08 01:28 43.70570 -66.66053 34772 ft 353 kts 191°
2026-05-08 01:28 43.65689 -66.66174 34775 ft 353 kts 191°
2026-05-08 01:29 43.60783 -66.66294 34775 ft 353 kts 191°
2026-05-08 01:29 43.55873 -66.66422 34775 ft 353 kts 191°
2026-05-08 01:30 43.50965 -66.66559 34772 ft 353 kts 191°
2026-05-08 01:30 43.46056 -66.66694 34776 ft 353 kts 191°
2026-05-08 01:31 43.41142 -66.66821 34776 ft 353 kts 191°
2026-05-08 01:31 43.36221 -66.66945 34772 ft 354 kts 191°
2026-05-08 01:32 43.31303 -66.67079 34777 ft 354 kts 191°
2026-05-08 01:32 43.26379 -66.67208 34778 ft 354 kts 191°
2026-05-08 01:33 43.21455 -66.67327 34778 ft 354 kts 191°
2026-05-08 01:33 43.16526 -66.67456 34779 ft 354 kts 191°
2026-05-08 01:34 43.11601 -66.67582 34781 ft 354 kts 191°
2026-05-08 01:34 43.06672 -66.67716 34785 ft 354 kts 191°
2026-05-08 01:35 43.01771 -66.67845 34785 ft 355 kts 191°
2026-05-08 01:35 42.96833 -66.67972 34792 ft 355 kts 191°
2026-05-08 01:36 42.91902 -66.68091 34793 ft 355 kts 191°
2026-05-08 01:36 42.86955 -66.68217 34797 ft 355 kts 191°
2026-05-08 01:37 42.82015 -66.68355 34799 ft 355 kts 191°
2026-05-08 01:37 42.77066 -66.68476 34798 ft 356 kts 191°
2026-05-08 01:38 42.72113 -66.68598 34800 ft 356 kts 191°
2026-05-08 01:38 42.67163 -66.68723 34801 ft 356 kts 191°
2026-05-08 01:39 42.62216 -66.68849 34795 ft 356 kts 191°
2026-05-08 01:39 42.57295 -66.68977 34797 ft 356 kts 191°
2026-05-08 01:40 42.52341 -66.69105 34808 ft 356 kts 191°
2026-05-08 01:40 42.47382 -66.69224 34807 ft 357 kts 191°
2026-05-08 01:41 42.42420 -66.69345 34810 ft 357 kts 191°
2026-05-08 01:41 42.37450 -66.69470 34816 ft 357 kts 191°
2026-05-08 01:42 42.32488 -66.69602 34810 ft 357 kts 191°
2026-05-08 01:42 42.27517 -66.69725 34810 ft 357 kts 191°
2026-05-08 01:43 42.22544 -66.69842 34805 ft 357 kts 191°
2026-05-08 01:43 42.17573 -66.69964 34803 ft 358 kts 191°
2026-05-08 01:44 42.12591 -66.70087 34806 ft 358 kts 191°
2026-05-08 01:44 42.07612 -66.70208 34814 ft 358 kts 191°
2026-05-08 01:45 42.02634 -66.70337 34810 ft 358 kts 191°
2026-05-08 01:45 41.97650 -66.70466 34817 ft 358 kts 191°
2026-05-08 01:46 41.92671 -66.70592 34821 ft 358 kts 191°
2026-05-08 01:46 41.87722 -66.70711 34819 ft 358 kts 191°
2026-05-08 01:47 41.82744 -66.70830 34822 ft 358 kts 191°
2026-05-08 01:47 41.77757 -66.70957 34826 ft 358 kts 191°
2026-05-08 01:48 41.70288 -66.71139 34827 ft 358 kts 191°
2026-05-08 01:48 41.65308 -66.71255 34823 ft 358 kts 191°
2026-05-08 01:49 41.60328 -66.71385 34823 ft 358 kts 191°
2026-05-08 01:49 41.55348 -66.71509 34817 ft 358 kts 191°
2026-05-08 01:50 41.50365 -66.71628 34818 ft 358 kts 191°
2026-05-08 01:50 41.45378 -66.71755 34821 ft 358 kts 191°
2026-05-08 01:51 41.40389 -66.71876 34823 ft 359 kts 191°
2026-05-08 01:51 41.35385 -66.71997 34822 ft 360 kts 191°
2026-05-08 01:52 41.30378 -66.72122 34821 ft 361 kts 191°
2026-05-08 01:52 41.25384 -66.72241 34819 ft 361 kts 191°
2026-05-08 01:53 41.20348 -66.72358 34816 ft 363 kts 191°
2026-05-08 01:53 41.15297 -66.72482 34814 ft 364 kts 191°
2026-05-08 01:54 41.10225 -66.72609 34812 ft 365 kts 191°
2026-05-08 01:54 41.05124 -66.72745 34811 ft 367 kts 191°
2026-05-08 01:55 41.00008 -66.72861 34812 ft 369 kts 190°
2026-05-08 01:55 40.94860 -66.72974 34813 ft 370 kts 190°
2026-05-08 01:56 40.89698 -66.73096 34815 ft 372 kts 190°
2026-05-08 01:56 40.84516 -66.73226 34820 ft 373 kts 190°
2026-05-08 01:57 40.79320 -66.73363 34822 ft 374 kts 190°
2026-05-08 01:57 40.74097 -66.73482 34825 ft 376 kts 190°
2026-05-08 01:58 40.68895 -66.73597 34824 ft 377 kts 190°
2026-05-08 01:58 40.63646 -66.73724 34825 ft 378 kts 190°
2026-05-08 01:59 40.58383 -66.73858 34823 ft 379 kts 190°
2026-05-08 01:59 40.53103 -66.73982 34825 ft 380 kts 190°
2026-05-08 02:00 40.47808 -66.74101 34818 ft 381 kts 190°
2026-05-08 02:00 40.42501 -66.74224 34820 ft 382 kts 190°
2026-05-08 02:01 40.37173 -66.74357 34823 ft 383 kts 190°
2026-05-08 02:01 40.31826 -66.74475 34827 ft 385 kts 190°
2026-05-08 02:02 40.26471 -66.74604 34828 ft 385 kts 190°
2026-05-08 02:02 40.21101 -66.74734 34819 ft 386 kts 190°
2026-05-08 02:03 40.15725 -66.74853 34824 ft 387 kts 190°
2026-05-08 02:03 40.10340 -66.74982 34823 ft 387 kts 190°
2026-05-08 02:04 40.04985 -66.75114 34825 ft 388 kts 190°
2026-05-08 02:04 39.99585 -66.75239 34827 ft 388 kts 191°
2026-05-08 02:05 39.94174 -66.75363 34821 ft 389 kts 191°
2026-05-08 02:05 39.88758 -66.75492 34823 ft 390 kts 191°
2026-05-08 02:06 39.83330 -66.75617 34824 ft 390 kts 191°
2026-05-08 02:06 39.77895 -66.75750 34825 ft 391 kts 191°
2026-05-08 02:07 39.72452 -66.75877 34822 ft 391 kts 191°
2026-05-08 02:07 39.67001 -66.76002 34817 ft 392 kts 191°
2026-05-08 02:08 39.61552 -66.76131 34813 ft 392 kts 191°
2026-05-08 02:08 39.57011 -66.76231 34810 ft 393 kts 191°
2026-05-08 02:09 39.50603 -66.76363 34804 ft 394 kts 191°
2026-05-08 02:09 39.46039 -66.76469 34797 ft 395 kts 191°
2026-05-08 02:10 39.39647 -66.76621 34801 ft 396 kts 191°
2026-05-08 02:10 39.35028 -66.76736 34798 ft 397 kts 191°
2026-05-08 02:11 39.28600 -66.76878 34795 ft 398 kts 191°
2026-05-08 02:11 39.23986 -66.76981 34794 ft 399 kts 191°
2026-05-08 02:12 39.17478 -66.77131 34790 ft 401 kts 191°
2026-05-08 02:12 39.12839 -66.77243 34788 ft 402 kts 191°
2026-05-08 02:13 39.07238 -66.77363 34783 ft 403 kts 191°
2026-05-08 02:13 39.01623 -66.77481 34782 ft 404 kts 190°
2026-05-08 02:14 38.95991 -66.77612 34785 ft 405 kts 191°
2026-05-08 02:14 38.90336 -66.77753 34783 ft 407 kts 190°
2026-05-08 02:15 38.84672 -66.77875 34787 ft 408 kts 190°
2026-05-08 02:15 38.78993 -66.77999 34784 ft 408 kts 190°
2026-05-08 02:16 38.73306 -66.78130 34776 ft 409 kts 191°
2026-05-08 02:16 38.67610 -66.78258 34771 ft 410 kts 191°
2026-05-08 02:17 38.61932 -66.78398 34772 ft 411 kts 191°
2026-05-08 02:17 38.56204 -66.78531 34764 ft 412 kts 191°
2026-05-08 02:18 38.50461 -66.78648 34763 ft 413 kts 191°
2026-05-08 02:18 38.44702 -66.78781 34757 ft 414 kts 191°
2026-05-08 02:19 38.38924 -66.78908 34754 ft 415 kts 191°
2026-05-08 02:19 38.33142 -66.79042 34750 ft 416 kts 192°
2026-05-08 02:20 38.27352 -66.79169 34754 ft 417 kts 192°
2026-05-08 02:20 38.21540 -66.79283 34764 ft 418 kts 192°
2026-05-08 02:21 38.15726 -66.79402 34764 ft 418 kts 192°
2026-05-08 02:21 38.09901 -66.79543 34763 ft 419 kts 192°
2026-05-08 02:22 38.04109 -66.79680 34764 ft 420 kts 192°
2026-05-08 02:22 37.98259 -66.79812 34764 ft 421 kts 192°
2026-05-08 02:23 37.92398 -66.79935 34760 ft 422 kts 192°
2026-05-08 02:23 37.86498 -66.80057 34759 ft 424 kts 192°
2026-05-08 02:24 37.80587 -66.80188 34763 ft 426 kts 192°
2026-05-08 02:24 37.74647 -66.80326 34771 ft 428 kts 192°
2026-05-08 02:25 37.68690 -66.80461 34775 ft 429 kts 192°
2026-05-08 02:25 37.62710 -66.80596 34779 ft 430 kts 192°
2026-05-08 02:26 37.56757 -66.80728 34782 ft 431 kts 192°
2026-05-08 02:26 37.50748 -66.80856 34788 ft 432 kts 192°
2026-05-08 02:27 37.44776 -66.81184 34790 ft 422 kts 200°
2026-05-08 02:27 37.39073 -66.82590 34793 ft 418 kts 202°
2026-05-08 02:28 37.33376 -66.84036 34800 ft 418 kts 202°
2026-05-08 02:28 37.27671 -66.85484 34804 ft 418 kts 202°
2026-05-08 02:29 37.21958 -66.86927 34811 ft 419 kts 202°
2026-05-08 02:29 37.16246 -66.88367 34818 ft 419 kts 202°
2026-05-08 02:30 37.10538 -66.89812 34820 ft 419 kts 202°
2026-05-08 02:30 37.04825 -66.91255 34826 ft 419 kts 202°
2026-05-08 02:31 36.99112 -66.92686 34829 ft 419 kts 202°
2026-05-08 02:31 36.93398 -66.94119 34827 ft 419 kts 202°
2026-05-08 02:32 36.87720 -66.95542 34825 ft 419 kts 202°
2026-05-08 02:32 36.81996 -66.96973 34830 ft 419 kts 203°
2026-05-08 02:33 36.76282 -66.98403 34840 ft 419 kts 202°
2026-05-08 02:33 36.70562 -66.99823 34850 ft 419 kts 203°
2026-05-08 02:34 36.64847 -67.01251 34857 ft 418 kts 203°
2026-05-08 02:34 36.59138 -67.02679 34855 ft 418 kts 203°
2026-05-08 02:35 36.53436 -67.04093 34862 ft 418 kts 202°
2026-05-08 02:35 36.47731 -67.05506 34862 ft 418 kts 202°
2026-05-08 02:36 36.42036 -67.06922 34864 ft 417 kts 202°
2026-05-08 02:36 36.36336 -67.08334 34872 ft 417 kts 202°
2026-05-08 02:37 36.30643 -67.09738 35001 ft 418 kts 202°
2026-05-08 02:37 36.27824 -67.10430 35245 ft 418 kts 202°
2026-05-08 02:37 36.24974 -67.11128 35537 ft 416 kts 202°
2026-05-08 02:38 36.22140 -67.11825 35820 ft 415 kts 202°
2026-05-08 02:38 36.19313 -67.12524 35887 ft 414 kts 202°
2026-05-08 02:38 36.13677 -67.13917 35887 ft 413 kts 202°
2026-05-08 02:39 36.08036 -67.15304 35893 ft 413 kts 202°
2026-05-08 02:39 36.02391 -67.16688 35899 ft 414 kts 201°
2026-05-08 02:40 35.96733 -67.18070 35902 ft 415 kts 201°
2026-05-08 02:40 35.91068 -67.19451 35897 ft 415 kts 201°
2026-05-08 02:41 35.85391 -67.20840 35894 ft 416 kts 200°
2026-05-08 02:41 35.79709 -67.22233 35893 ft 416 kts 200°
2026-05-08 02:42 35.74022 -67.23616 35894 ft 417 kts 200°
2026-05-08 02:42 35.68310 -67.25000 35895 ft 418 kts 200°
2026-05-08 02:43 35.62606 -67.26389 35897 ft 419 kts 200°
2026-05-08 02:43 35.56912 -67.27768 35901 ft 420 kts 200°
2026-05-08 02:44 35.51174 -67.29151 35903 ft 421 kts 200°
2026-05-08 02:44 35.45432 -67.30545 35903 ft 422 kts 200°
2026-05-08 02:45 35.39661 -67.31944 35904 ft 422 kts 199°
2026-05-08 02:45 35.33890 -67.33327 35909 ft 423 kts 199°
2026-05-08 02:46 35.28101 -67.34720 35914 ft 424 kts 199°
2026-05-08 02:46 35.22303 -67.36110 35913 ft 425 kts 199°
2026-05-08 02:47 35.16495 -67.37501 35917 ft 426 kts 199°
2026-05-08 02:47 35.10684 -67.38895 35919 ft 426 kts 199°
2026-05-08 02:48 35.04858 -67.40288 35927 ft 427 kts 199°
2026-05-08 02:48 34.99019 -67.41683 35930 ft 428 kts 199°
2026-05-08 02:49 34.93179 -67.43073 35930 ft 428 kts 199°
2026-05-08 02:49 34.87328 -67.44465 35932 ft 429 kts 199°
2026-05-08 02:50 34.81473 -67.45859 35940 ft 429 kts 199°
2026-05-08 02:50 34.75607 -67.47253 35940 ft 430 kts 199°
2026-05-08 02:51 34.69768 -67.48635 35942 ft 430 kts 199°
2026-05-08 02:51 34.63892 -67.50028 35945 ft 431 kts 199°
2026-05-08 02:52 34.58001 -67.51428 35949 ft 431 kts 199°
2026-05-08 02:52 34.52101 -67.52824 35956 ft 432 kts 199°
2026-05-08 02:53 34.46198 -67.54213 35958 ft 433 kts 199°
2026-05-08 02:53 34.40281 -67.55605 35961 ft 433 kts 199°
2026-05-08 02:54 34.34361 -67.56994 35962 ft 434 kts 199°
2026-05-08 02:54 34.28436 -67.58373 35963 ft 434 kts 199°
2026-05-08 02:55 34.19529 -67.60460 35966 ft 435 kts 199°
2026-05-08 02:56 34.13586 -67.61862 35965 ft 436 kts 199°
2026-05-08 02:56 34.07627 -67.63259 35971 ft 437 kts 199°
2026-05-08 02:57 34.01660 -67.64649 35980 ft 437 kts 199°
2026-05-08 02:57 33.95680 -67.66034 35976 ft 438 kts 199°
2026-05-08 02:58 33.89693 -67.67427 35986 ft 438 kts 199°
2026-05-08 02:58 33.83699 -67.68821 35977 ft 439 kts 199°
2026-05-08 02:59 33.77695 -67.70216 35985 ft 440 kts 199°
2026-05-08 02:59 33.71689 -67.71603 35978 ft 440 kts 199°
2026-05-08 03:00 33.65666 -67.72991 35991 ft 441 kts 199°
2026-05-08 03:00 33.59678 -67.74376 35989 ft 442 kts 199°
2026-05-08 03:01 33.53640 -67.75769 35992 ft 442 kts 199°
2026-05-08 03:01 33.47593 -67.77165 35997 ft 443 kts 199°
2026-05-08 03:02 33.41542 -67.78559 36005 ft 443 kts 198°
2026-05-08 03:02 33.35492 -67.79948 36005 ft 443 kts 198°
2026-05-08 03:03 33.29429 -67.81328 36011 ft 444 kts 198°
2026-05-08 03:03 33.23363 -67.82712 36003 ft 444 kts 198°
2026-05-08 03:04 33.18318 -67.83870 36006 ft 444 kts 198°
2026-05-08 03:04 33.12244 -67.85263 36014 ft 445 kts 198°
2026-05-08 03:05 33.06159 -67.86649 36012 ft 445 kts 198°
2026-05-08 03:05 33.00070 -67.88035 36015 ft 446 kts 198°
2026-05-08 03:06 32.93973 -67.89420 36014 ft 446 kts 198°
2026-05-08 03:06 32.87869 -67.90809 36019 ft 446 kts 198°
2026-05-08 03:07 32.81775 -67.92195 36021 ft 447 kts 198°
2026-05-08 03:07 32.75664 -67.93575 36021 ft 447 kts 198°
2026-05-08 03:08 32.69552 -67.94949 36024 ft 447 kts 198°
2026-05-08 03:08 32.63432 -67.96332 36030 ft 448 kts 198°
2026-05-08 03:09 32.57313 -67.97718 36027 ft 448 kts 198°
2026-05-08 03:09 32.51227 -67.99091 36036 ft 448 kts 197°
2026-05-08 03:10 32.45094 -68.00474 36034 ft 449 kts 197°
2026-05-08 03:10 32.38955 -68.01853 36036 ft 449 kts 197°
2026-05-08 03:11 32.32811 -68.03219 36037 ft 450 kts 197°
2026-05-08 03:11 32.26655 -68.04591 36043 ft 450 kts 197°
2026-05-08 03:12 32.20499 -68.05959 36038 ft 450 kts 197°
2026-05-08 03:12 32.14347 -68.07348 36042 ft 451 kts 197°
2026-05-08 03:13 32.08181 -68.08734 36039 ft 451 kts 197°
2026-05-08 03:13 32.02014 -68.10101 36044 ft 451 kts 197°
2026-05-08 03:14 31.95836 -68.11473 36045 ft 452 kts 197°
2026-05-08 03:14 31.89658 -68.12844 36046 ft 452 kts 197°
2026-05-08 03:15 31.83474 -68.14210 36044 ft 452 kts 197°
2026-05-08 03:15 31.77290 -68.15578 36044 ft 452 kts 197°
2026-05-08 03:16 31.71101 -68.16956 36046 ft 453 kts 197°
2026-05-08 03:16 31.64908 -68.18328 36055 ft 453 kts 197°
2026-05-08 03:17 31.58709 -68.19693 36055 ft 453 kts 197°
2026-05-08 03:17 31.52508 -68.21061 36051 ft 454 kts 197°
2026-05-08 03:18 31.46300 -68.22423 36049 ft 454 kts 197°
2026-05-08 03:18 31.40008 -68.23420 36050 ft 463 kts 186°
2026-05-08 03:19 31.33555 -68.22407 36051 ft 473 kts 173°
2026-05-08 03:19 31.27109 -68.20845 36052 ft 473 kts 174°
2026-05-08 03:20 31.20653 -68.19303 36047 ft 474 kts 174°
2026-05-08 03:20 31.14186 -68.17757 36221 ft 475 kts 174°
2026-05-08 03:20 31.10943 -68.16976 36441 ft 476 kts 174°
2026-05-08 03:21 31.07746 -68.16208 36662 ft 476 kts 174°
2026-05-08 03:21 31.04458 -68.15424 36885 ft 476 kts 174°
2026-05-08 03:21 31.01258 -68.14663 37047 ft 477 kts 174°
2026-05-08 03:22 30.94749 -68.13111 37073 ft 477 kts 174°
2026-05-08 03:22 30.88247 -68.11549 37082 ft 477 kts 173°
2026-05-08 03:23 30.81739 -68.09978 37076 ft 478 kts 173°
2026-05-08 03:23 30.75232 -68.08425 37078 ft 478 kts 173°
2026-05-08 03:24 30.68714 -68.06882 37079 ft 478 kts 173°
2026-05-08 03:24 30.62187 -68.05331 37076 ft 479 kts 173°
2026-05-08 03:25 30.55664 -68.03789 37075 ft 479 kts 173°
2026-05-08 03:25 30.49128 -68.02241 37075 ft 479 kts 173°
2026-05-08 03:26 30.42601 -68.00684 37078 ft 479 kts 173°
2026-05-08 03:26 30.36055 -67.99147 37080 ft 479 kts 173°
2026-05-08 03:27 30.29518 -67.97606 37084 ft 480 kts 173°
2026-05-08 03:27 30.22976 -67.96058 37081 ft 480 kts 173°
2026-05-08 03:28 30.16431 -67.94516 37084 ft 480 kts 173°
2026-05-08 03:28 30.09880 -67.92976 37087 ft 480 kts 173°
2026-05-08 03:29 30.03332 -67.91441 37089 ft 481 kts 173°
2026-05-08 03:29 29.96774 -67.89901 37090 ft 481 kts 173°
2026-05-08 03:30 29.86981 -67.87606 37091 ft 481 kts 173°
2026-05-08 03:31 29.73857 -67.84539 37093 ft 481 kts 173°
2026-05-08 03:32 29.64006 -67.82252 37094 ft 482 kts 173°
2026-05-08 03:32 29.57433 -67.80726 37093 ft 482 kts 172°
2026-05-08 03:33 29.50856 -67.79202 37093 ft 482 kts 172°
2026-05-08 03:33 29.44276 -67.77678 37097 ft 482 kts 172°
2026-05-08 03:34 29.37697 -67.76157 37106 ft 482 kts 172°
2026-05-08 03:34 29.31121 -67.74642 37107 ft 482 kts 172°
2026-05-08 03:35 29.24539 -67.73120 37106 ft 483 kts 172°
2026-05-08 03:35 29.17951 -67.71592 37103 ft 483 kts 172°
2026-05-08 03:36 29.11365 -67.70076 37107 ft 483 kts 172°
2026-05-08 03:36 29.04768 -67.68558 37108 ft 483 kts 172°
2026-05-08 03:37 28.98178 -67.67040 37108 ft 483 kts 172°
2026-05-08 03:37 28.91583 -67.65524 37109 ft 484 kts 172°
2026-05-08 03:38 28.84982 -67.64016 37111 ft 484 kts 172°
2026-05-08 03:38 28.78388 -67.62500 37112 ft 484 kts 172°
2026-05-08 03:39 28.71820 -67.61000 37112 ft 484 kts 172°
2026-05-08 03:39 28.65219 -67.59496 37114 ft 484 kts 172°
2026-05-08 03:40 28.58604 -67.57979 37116 ft 485 kts 172°
2026-05-08 03:40 28.51996 -67.56475 37113 ft 485 kts 172°
2026-05-08 03:41 28.45378 -67.54973 37115 ft 485 kts 172°
2026-05-08 03:41 28.38766 -67.53468 37121 ft 485 kts 172°
2026-05-08 03:42 28.32153 -67.51969 37119 ft 485 kts 172°
2026-05-08 03:42 28.25537 -67.50473 37123 ft 485 kts 172°
2026-05-08 03:43 28.18912 -67.48981 37126 ft 485 kts 171°
2026-05-08 03:43 28.12292 -67.47477 37121 ft 485 kts 171°
2026-05-08 03:44 28.05669 -67.45983 37129 ft 485 kts 171°
2026-05-08 03:44 27.99043 -67.44484 37126 ft 486 kts 171°
2026-05-08 03:45 27.92410 -67.42996 37130 ft 486 kts 171°
2026-05-08 03:45 27.85785 -67.41513 37131 ft 486 kts 171°
2026-05-08 03:46 27.79151 -67.40017 37131 ft 486 kts 171°
2026-05-08 03:46 27.72518 -67.38527 37128 ft 486 kts 171°
2026-05-08 03:47 27.65887 -67.37040 37130 ft 486 kts 171°
2026-05-08 03:47 27.59248 -67.35552 37133 ft 486 kts 171°
2026-05-08 03:48 27.52657 -67.34079 37132 ft 486 kts 171°
2026-05-08 03:48 27.46018 -67.32591 37133 ft 486 kts 171°
2026-05-08 03:49 27.39377 -67.31112 37132 ft 487 kts 171°
2026-05-08 03:49 27.32737 -67.29639 37131 ft 487 kts 171°
2026-05-08 03:50 27.26087 -67.28164 37131 ft 487 kts 171°
2026-05-08 03:50 27.19441 -67.26687 37134 ft 487 kts 171°
2026-05-08 03:51 27.12788 -67.25212 37131 ft 487 kts 171°
2026-05-08 03:51 27.06139 -67.23734 37132 ft 487 kts 171°
2026-05-08 03:52 26.99484 -67.22261 37135 ft 487 kts 171°
2026-05-08 03:52 26.93960 -67.21045 37134 ft 487 kts 171°
2026-05-08 03:53 26.87301 -67.19578 37138 ft 487 kts 171°
2026-05-08 03:53 26.80649 -67.18110 37138 ft 488 kts 170°
2026-05-08 03:54 26.73989 -67.16638 37138 ft 488 kts 170°
2026-05-08 03:54 26.67336 -67.15168 37137 ft 488 kts 170°
2026-05-08 03:55 26.60671 -67.13710 37140 ft 488 kts 170°
2026-05-08 03:55 26.54054 -67.12263 37137 ft 488 kts 170°
2026-05-08 03:56 26.47399 -67.10800 37138 ft 488 kts 170°
2026-05-08 03:56 26.40734 -67.09340 37138 ft 488 kts 170°
2026-05-08 03:57 26.34077 -67.07881 37142 ft 488 kts 170°
2026-05-08 03:57 26.27410 -67.06428 37140 ft 488 kts 170°
2026-05-08 03:58 26.20752 -67.04975 37142 ft 488 kts 170°
2026-05-08 03:58 26.14083 -67.03529 37142 ft 488 kts 170°
2026-05-08 03:59 26.07422 -67.02079 37142 ft 488 kts 170°
2026-05-08 03:59 26.00757 -67.00620 37143 ft 488 kts 170°
2026-05-08 04:00 25.94085 -66.99173 37142 ft 488 kts 170°
2026-05-08 04:00 25.87414 -66.97728 37140 ft 488 kts 170°
2026-05-08 04:01 25.80743 -66.96280 37142 ft 489 kts 169°
2026-05-08 04:01 25.74119 -66.94843 37140 ft 489 kts 169°
2026-05-08 04:02 25.67439 -66.93398 37138 ft 489 kts 169°
2026-05-08 04:02 25.60760 -66.91954 37142 ft 489 kts 169°
2026-05-08 04:03 25.54079 -66.90520 37136 ft 489 kts 169°
2026-05-08 04:03 25.44056 -66.88371 37127 ft 490 kts 169°
2026-05-08 04:04 25.37364 -66.86922 37137 ft 490 kts 169°
2026-05-08 04:04 25.30674 -66.85477 37149 ft 490 kts 169°
2026-05-08 04:05 25.23982 -66.84053 37143 ft 490 kts 169°
2026-05-08 04:05 25.17293 -66.82625 37148 ft 489 kts 169°
2026-05-08 04:06 25.10608 -66.81189 37149 ft 489 kts 169°
2026-05-08 04:06 25.03918 -66.79756 37148 ft 489 kts 169°
2026-05-08 04:07 24.97275 -66.78339 37147 ft 489 kts 169°
2026-05-08 04:07 24.90593 -66.76907 37148 ft 489 kts 169°
2026-05-08 04:08 24.83912 -66.75477 37143 ft 489 kts 169°
2026-05-08 04:08 24.77221 -66.74056 37143 ft 489 kts 169°
2026-05-08 04:09 24.70537 -66.72631 37140 ft 489 kts 169°
2026-05-08 04:09 24.63848 -66.71207 37143 ft 489 kts 169°
2026-05-08 04:10 24.57160 -66.69793 37142 ft 489 kts 169°
2026-05-08 04:10 24.50477 -66.68374 37140 ft 489 kts 169°
2026-05-08 04:11 24.43778 -66.66961 37139 ft 489 kts 169°
2026-05-08 04:11 24.37090 -66.65550 37140 ft 489 kts 169°
2026-05-08 04:12 24.33750 -66.64847 37138 ft 489 kts 169°